Orlando, FL

3:55 AM EST on December 04, 2016 (GMT -0500)
Orlando International

Weather History for KMCO - November, 2012

Change the Weather History Date:

Tuesday, November 13, 2012

  Actual Average Record
Temperature  
Mean Temperature 72 °F 69 °F  
Max Temperature 82 °F 79 °F 89 °F (1948)
Min Temperature 61 °F 59 °F 35 °F (1934)
Degree Days  
Heating Degree Days 0 1  
Month to date heating degree days 18 13  
Since 1 July heating degree days 36 18  
Cooling Degree Days 7 5  
Month to date cooling degree days 41 79  
Year to date cooling degree days 3477 3286  
Growing Degree Days 22 (Base 50)    
Moisture  
Dew Point 63 °F    
Average Humidity 75    
Maximum Humidity 100    
Minimum Humidity 49    
Precipitation  
Precipitation 0.00 in 0.08 in 1.42 in (1997)
Month to date precipitation T 0.98  
Year to date precipitation 39.58 46.96  
Sea Level Pressure  
Sea Level Pressure 30.15 in    
Wind  
Wind Speed 5 mph (NNE)    
Max Wind Speed 12 mph    
Max Gust Speed 14 mph    
Visibility 10 miles    
Events Fog    
T = Trace of Precipitation, MM = Missing Value Source: NWS Daily Summary

Daily Weather History Graph

Daily Weather History Graph

Search for Another Location

Airport or City:

Trip Planner

Search our weather history database for the weather conditions in past years. The results will help you decide how hot, cold, wet, or windy it might be!

Date:

Astronomy

Nov. 13, 2012 Rise Set
Actual Time 6:46 AM EST 5:32 PM EST
Civil Twilight 6:21 AM EST 5:57 PM EST
Nautical Twilight 5:53 AM EST 6:25 PM EST
Astronomical Twilight 5:25 AM EST 6:53 PM EST
Moon 6:22 AM EST (11/13) 5:26 PM EST (11/13)
Length of Visible Light 11h 35m
Length of Day
10h 46m
Waning Crescent, 0% of the Moon is Illuminated
Nov 13
Waning Crescent
Nov 13
New
Nov 20
First Quarter
Nov 28
Full
Dec 6
Last Quarter

Hourly Weather History & Observations

Time (EST) Temp. Heat Index Dew Point Humidity Pressure Visibility Wind Dir Wind Speed Gust Speed Precip Events Conditions
12:53 AM 64.9 °F - 63.0 °F 93% 30.17 in 10.0 mi North 3.5 mph - N/A   Partly Cloudy
1:53 AM 63.0 °F - 62.1 °F 97% 30.16 in 10.0 mi Calm Calm - N/A   Scattered Clouds
2:53 AM 61.0 °F - 60.1 °F 97% 30.15 in 10.0 mi Calm Calm - N/A   Scattered Clouds
3:53 AM 63.0 °F - 62.1 °F 97% 30.15 in 10.0 mi North 3.5 mph - N/A   Partly Cloudy
4:53 AM 63.0 °F - 62.1 °F 97% 30.15 in 10.0 mi Calm Calm - N/A   Partly Cloudy
5:53 AM 62.1 °F - 61.0 °F 96% 30.16 in 10.0 mi Calm Calm - N/A   Mostly Cloudy
6:53 AM 63.0 °F - 61.0 °F 93% 30.17 in 10.0 mi North 3.5 mph - N/A Fog Patches of Fog
7:53 AM 66.9 °F - 64.9 °F 93% 30.19 in 10.0 mi North 4.6 mph - N/A   Mostly Cloudy
8:53 AM 70.0 °F - 66.0 °F 87% 30.19 in 10.0 mi Calm Calm - N/A   Mostly Cloudy
9:53 AM 73.0 °F - 64.9 °F 76% 30.20 in 10.0 mi NNE 3.5 mph - N/A   Mostly Cloudy
10:53 AM 78.1 °F - 64.9 °F 64% 30.19 in 10.0 mi NNE 5.8 mph - N/A   Mostly Cloudy
11:53 AM 80.1 °F 81.5 °F 63.0 °F 56% 30.16 in 10.0 mi Variable 4.6 mph - N/A   Mostly Cloudy
12:53 PM 80.1 °F 80.7 °F 59.0 °F 48% 30.13 in 10.0 mi NNE 3.5 mph - N/A   Mostly Cloudy
1:53 PM 80.1 °F 80.9 °F 60.1 °F 50% 30.11 in 10.0 mi NNE 9.2 mph - N/A   Overcast
2:53 PM 79.0 °F - 60.1 °F 52% 30.11 in 10.0 mi ENE 5.8 mph - N/A   Overcast
3:53 PM 78.1 °F - 61.0 °F 56% 30.11 in 10.0 mi ENE 8.1 mph - N/A   Overcast
4:53 PM 75.9 °F - 63.0 °F 64% 30.12 in 10.0 mi East 9.2 mph - N/A   Overcast
5:53 PM 72.0 °F - 63.0 °F 73% 30.12 in 10.0 mi ENE 8.1 mph - N/A   Overcast
6:53 PM 71.1 °F - 64.0 °F 78% 30.13 in 10.0 mi NE 6.9 mph - N/A   Mostly Cloudy
7:53 PM 70.0 °F - 64.9 °F 84% 30.14 in 10.0 mi NNE 8.1 mph - N/A   Mostly Cloudy
8:53 PM 69.1 °F - 64.9 °F 87% 30.15 in 10.0 mi NNE 6.9 mph - N/A   Mostly Cloudy
9:53 PM 68.0 °F - 64.9 °F 90% 30.14 in 10.0 mi NNE 6.9 mph - N/A   Mostly Cloudy
10:53 PM 64.9 °F - 64.0 °F 97% 30.14 in 10.0 mi North 3.5 mph - N/A   Partly Cloudy
11:53 PM 64.9 °F - 64.0 °F 97% 30.14 in 10.0 mi North 5.8 mph - N/A   Scattered Clouds